Jacksonville, FL

9:40 AM EST on December 10, 2016 (GMT -0500)
Cecil

Weather History for KVQQ - May, 2013

Change the Weather History Date:

Sunday, May 26, 2013

  Actual Average (KNIP) Record (KNIP)
Temperature  
Mean Temperature 66 °F -  
Max Temperature 82 °F 85 °F 95 °F (2004)
Min Temperature 51 °F 68 °F 63 °F (2005)
Cooling Degree Days 2    
Growing Degree Days 16 (Base 50)    
Moisture  
Dew Point 55 °F    
Average Humidity 80    
Maximum Humidity 100    
Minimum Humidity 37    
Precipitation  
Precipitation 0.00 in - - ()
Sea Level Pressure  
Sea Level Pressure 30.20 in    
Wind  
Wind Speed 1 mph (ENE)    
Max Wind Speed 13 mph    
Max Gust Speed -    
Visibility 10 miles    
Events      
Averages and records for this station are not official NWS values.
T = Trace of Precipitation, MM = Missing Value Source: NWS Daily Summary

Daily Weather History Graph

Daily Weather History Graph

Search for Another Location

Airport or City:

Trip Planner

Search our weather history database for the weather conditions in past years. The results will help you decide how hot, cold, wet, or windy it might be!

Date:

Astronomy

May. 26, 2013 Rise Set
Actual Time 6:28 AM EDT 8:21 PM EDT
Civil Twilight 6:01 AM EDT 8:48 PM EDT
Nautical Twilight 5:28 AM EDT 9:20 PM EDT
Astronomical Twilight 4:54 AM EDT 9:55 PM EDT
Moon 10:09 PM EDT (5/26) 7:54 AM EDT (5/26)
Length of Visible Light 14h 46m
Length of Day
13h 53m
Waning Gibbous, 97% of the Moon is Illuminated
May 26
Waning Gibbous
May 31
Last Quarter
Jun 8
New
Jun 16
First Quarter
Jun 23
Full

Hourly Weather History & Observations

Time (EDT) Temp. Heat Index Dew Point Humidity Pressure Visibility Wind Dir Wind Speed Gust Speed Precip Events Conditions
12:15 AM 57.2 °F - 57.2 °F 100% 30.22 in 10.0 mi Calm Calm - N/A   Clear
12:35 AM 57.2 °F - 55.4 °F 94% 30.22 in 10.0 mi Calm Calm - N/A   Clear
12:55 AM 57.2 °F - 55.4 °F 94% 30.22 in 10.0 mi Calm Calm - N/A   Clear
1:15 AM 57.2 °F - 55.4 °F 94% 30.21 in 10.0 mi Calm Calm - N/A   Clear
1:35 AM 55.4 °F - 55.4 °F 100% 30.21 in 10.0 mi Calm Calm - N/A   Clear
1:55 AM 55.4 °F - 55.4 °F 100% 30.20 in 10.0 mi Calm Calm - N/A   Clear
2:15 AM 55.4 °F - 55.4 °F 100% 30.19 in 10.0 mi Calm Calm - N/A   Clear
2:35 AM 55.4 °F - 55.4 °F 100% 30.19 in 10.0 mi Calm Calm - N/A   Clear
2:55 AM 55.4 °F - 55.4 °F 100% 30.18 in 10.0 mi Calm Calm - N/A   Clear
3:15 AM 55.4 °F - 55.4 °F 100% 30.18 in 10.0 mi Calm Calm - N/A   Clear
3:35 AM 55.4 °F - 55.4 °F 100% 30.18 in 10.0 mi Calm Calm - N/A   Clear
3:55 AM 55.4 °F - 55.4 °F 100% 30.18 in 10.0 mi Calm Calm - N/A   Clear
4:15 AM 53.6 °F - 53.6 °F 100% 30.18 in 10.0 mi Calm Calm - N/A   Clear
4:35 AM 53.6 °F - 53.6 °F 100% 30.18 in 9.0 mi Calm Calm - N/A   Clear
4:55 AM 53.6 °F - 53.6 °F 100% 30.19 in 7.0 mi Calm Calm - N/A   Clear
5:15 AM 53.6 °F - 53.6 °F 100% 30.20 in 8.0 mi Calm Calm - N/A   Clear
5:35 AM 53.6 °F - 53.6 °F 100% 30.20 in 9.0 mi Calm Calm - N/A   Clear
5:55 AM 51.8 °F - 51.8 °F 100% 30.21 in 10.0 mi Calm Calm - N/A   Clear
6:15 AM 51.8 °F - 51.8 °F 100% 30.21 in 8.0 mi Calm Calm - N/A   Clear
6:35 AM 51.8 °F - 51.8 °F 100% 30.22 in 8.0 mi Calm Calm - N/A   Clear
6:50 AM 51.8 °F - 51.8 °F 100% 30.23 in 10.0 mi Calm Calm - N/A   Clear
7:50 AM 57.2 °F - 57.2 °F 100% 30.24 in 10.0 mi Calm Calm - N/A   Clear
8:50 AM 68.0 °F - 60.8 °F 78% 30.25 in 10.0 mi Calm Calm - N/A   Clear
9:50 AM 75.2 °F - 57.2 °F 53% 30.25 in 10.0 mi Calm Calm - N/A   Clear
10:50 AM 77.0 °F - 55.4 °F 47% 30.25 in 10.0 mi Calm Calm - N/A   Clear
11:50 AM 77.0 °F - 55.4 °F 47% 30.25 in 10.0 mi ENE 6.9 mph - N/A   Clear
12:50 PM 80.6 °F 80.5 °F 55.4 °F 42% 30.24 in 10.0 mi NNE 10.4 mph - N/A   Clear
1:50 PM 82.4 °F 81.4 °F 53.6 °F 37% 30.22 in 10.0 mi Calm Calm - N/A   Clear
2:50 PM 82.4 °F 81.7 °F 55.4 °F 39% 30.21 in 10.0 mi ENE 10.4 mph - N/A   Clear
3:50 PM 82.4 °F 81.4 °F 53.6 °F 37% 30.19 in 10.0 mi East 5.8 mph - N/A   Clear
4:50 PM 82.4 °F 81.4 °F 53.6 °F 37% 30.18 in 10.0 mi East 12.7 mph - N/A   Clear
5:50 PM 80.6 °F 80.3 °F 53.6 °F 39% 30.18 in 10.0 mi East 11.5 mph - N/A   Clear
6:50 PM 78.8 °F - 51.8 °F 39% 30.17 in 10.0 mi East 11.5 mph - N/A   Clear
7:50 PM 75.2 °F - 53.6 °F 47% 30.18 in 10.0 mi East 8.1 mph - N/A   Clear
8:15 PM 73.4 °F - 55.4 °F 53% 30.19 in 10.0 mi Calm Calm - N/A   Clear
8:35 PM 71.6 °F - 55.4 °F 57% 30.19 in 10.0 mi Calm Calm - N/A   Clear
8:55 PM 68.0 °F - 55.4 °F 64% 30.18 in 10.0 mi Calm Calm - N/A   Clear
9:15 PM 64.4 °F - 55.4 °F 73% 30.18 in 10.0 mi Calm Calm - N/A   Clear
9:35 PM 64.4 °F - 57.2 °F 77% 30.18 in 10.0 mi Calm Calm - N/A   Clear
9:55 PM 62.6 °F - 57.2 °F 82% 30.19 in 10.0 mi Calm Calm - N/A   Clear
10:15 PM 62.6 °F - 57.2 °F 82% 30.20 in 10.0 mi Calm Calm - N/A   Clear
10:35 PM 60.8 °F - 57.2 °F 88% 30.21 in 10.0 mi Calm Calm - N/A   Clear
10:55 PM 59.0 °F - 57.2 °F 94% 30.21 in 10.0 mi Calm Calm - N/A   Clear
11:15 PM 59.0 °F - 57.2 °F 94% 30.21 in 10.0 mi Calm Calm - N/A   Clear
11:35 PM 59.0 °F - 57.2 °F 94% 30.21 in 10.0 mi Calm Calm - N/A   Clear
11:55 PM 59.0 °F - 57.2 °F 94% 30.21 in 10.0 mi Calm Calm - N/A   Clear